Flag for United Kingdom Weather past 2 weeks in Swansea, Wales, United Kingdom

Now
38 °F

Chilly.


Feels Like: 30 °F
Forecast: 38 / 42 °F
Wind: 15 mph from West

Location: Mumbles

Current Time: Jan 31, 2015 at 1:29:56 AM

Latest Report: Jan 31, 2015 at 12:00 AM


Visibility: N/A

Pressure: 29.03 "Hg

Humidity: 78%

Dew point: 32 °F

Location of SwanseaLocation

Historic Weather in Swansea — Graph

°F

Swansea temperature yesterday

Maximum temperature yesterday: 45 °F (at 2:00 PM)
Minimum temperature yesterday: 38 °F (at 10:00 PM)
Average temperature yesterday: 41 °F

Past Weeks' High & Low Weather Summary

 TemperatureHumidityPressure
High49 °F (Jan 26, 6:00 AM)99% (Jan 26, 6:00 AM)30.53 "Hg (Jan 26, 6:00 AM)
Low33 °F (Jan 19, 8:00 AM)57% (Jan 17, 2:00 AM)28.88 "Hg (Jan 30, 4:00 AM)
Average42 °F81%29.92 "Hg
* Reported Jan 15 11:00 PM — Jan 30 11:00 PM, Swansea, Weather by CustomWeather, © 2014

Note: Actual official high and low records may vary slightly from our data, if they occured in-between our weather recording intervals... More about our weather records

Advertising

Swansea weather history for previous 24 hours

 ConditionsComfort  
Time TempWeatherWind HumidityBarometerVisibility
11:00 PM
Jan 30
38 °FChilly.15 mph78%29.03 "HgN/A
10:00 PM38 °FChilly.12 mph77%29.03 "HgN/A
8:00 PM39 °FChilly.12 mph78%29.03 "HgN/A
7:00 PM40 °FQuite cool.9 mph77%29.03 "HgN/A
6:00 PM40 °FQuite cool.10 mph79%29.03 "HgN/A
5:00 PM42 °FQuite cool.12 mph76%29.03 "HgN/A
4:00 PM42 °FQuite cool.9 mph82%29.03 "HgN/A
3:00 PM42 °FQuite cool.10 mph78%29.03 "HgN/A
2:00 PM45 °FQuite cool.20 mph72%29.03 "HgN/A
1:00 PM44 °FQuite cool.15 mph82%29.03 "HgN/A
12:00 PM43 °FQuite cool.15 mph85%29.06 "HgN/A
11:00 AM42 °FQuite cool.9 mph89%29.06 "HgN/A
10:00 AM41 °FQuite cool.9 mph93%29.06 "HgN/A
9:00 AM40 °FChilly.10 mph89%29.06 "HgN/A
8:00 AM39 °FChilly.10 mph77%29.03 "HgN/A
7:00 AM39 °FChilly.10 mph80%29.03 "HgN/A
6:00 AM40 °FQuite cool.15 mph69%29.00 "HgN/A
5:00 AM40 °FQuite cool.25 mph83%28.94 "HgN/A
4:00 AM40 °FChilly.31 mph85%28.88 "HgN/A
2:00 AM42 °FQuite cool.24 mph73%28.91 "HgN/A
1:00 AM42 °FQuite cool.31 mph75%28.94 "HgN/A
Weather by CustomWeather, © 2014

See weather overviewHow to use our weather pages